Flag for South Africa Weather past 2 weeks in Port Elizabeth, South Africa

Now
61 °F

Passing clouds.


Feels Like: 61 °F
Forecast: 53 / 70 °F
Wind: 21 mph from West

Location: Port Elizabeth Airport

Current Time: Sep 15, 2014 at 6:13:16 AM

Latest Report: Sep 15, 2014 at 5:00 AM


Visibility: N/A

Pressure: 29.98 "Hg

Humidity: 88%

Dew point: 57 °F

Location of Port ElizabethLocation

Historic Weather in Port Elizabeth — Graph

°F

Port Elizabeth temperature yesterday

Maximum temperature yesterday: 70 °F (at 12:01 PM)
Minimum temperature yesterday: 59 °F (at 12:00 AM)
Average temperature yesterday: 64 °F

Past Weeks' High & Low Weather Summary

 TemperatureHumidityPressure
High91 °F (Sep 5, 11:00 AM)94% (Sep 2, 4:00 AM)30.48 "Hg (Sep 2, 4:00 AM)
Low48 °F (Sep 13, 12:00 AM)18% (Sep 5, 11:00 AM)29.86 "Hg (Sep 14, 4:00 PM)
Average62 °F75%30.13 "Hg
* Reported Aug 31 5:00 AM — Sep 15 5:00 AM, Port Elizabeth, Weather by CustomWeather, © 2014

Note: Actual official high and low records may vary slightly from our data, if they occured in-between our weather recording intervals... More about our weather records

Advertising

Port Elizabeth weather history for previous 24 hours

 ConditionsComfort  
Time TempWeatherWind HumidityBarometerVisibility
5:00 AM
Sep 15
61 °FPassing clouds.21 mph88%29.98 "HgN/A
4:01 AM61 °FPassing clouds.22 mph88%29.98 "HgN/A
3:00 AM63 °FPassing clouds.18 mph83%29.95 "Hg6 mi
2:00 AM63 °FPassing clouds.21 mph83%29.95 "Hg6 mi
1:00 AM63 °FClear.12 mph83%29.95 "Hg10 mi
12:00 AM64 °FClear.15 mph73%29.92 "Hg10 mi
11:00 PM
Sep 14
63 °FClear.15 mph77%29.92 "Hg10 mi
10:00 PM63 °FClear.15 mph83%29.92 "Hg10 mi
9:00 PM66 °FPassing clouds.15 mph83%29.95 "Hg5 mi
8:00 PM66 °FPassing clouds.8 mph88%29.95 "Hg4 mi
7:00 PM66 °FPassing clouds.3 mph88%29.89 "Hg4 mi
6:00 PM66 °FPassing clouds.10 mph88%29.86 "HgN/A
5:59 PM66 °FPassing clouds.9 mph88%29.86 "HgN/A
5:00 PM66 °FPassing clouds.13 mph83%29.86 "HgN/A
4:00 PM68 °FPassing clouds.13 mph78%29.86 "HgN/A
3:00 PM68 °FPassing clouds.13 mph78%29.89 "HgN/A
2:00 PM68 °FPassing clouds.10 mph78%29.95 "HgN/A
1:00 PM68 °FSunny.9 mph73%29.98 "Hg10 mi
12:01 PM70 °FPassing clouds.10 mph69%30.01 "HgN/A
11:00 AM68 °FPartly sunny.10 mph69%30.04 "HgN/A
10:00 AM64 °FOvercast.7 mph78%30.07 "HgN/A
9:00 AM64 °FOvercast.7 mph73%30.07 "HgN/A
8:00 AM63 °FPartly sunny.1 mph77%30.09 "HgN/A
7:00 AM59 °FPartly sunny.No wind88%30.09 "HgN/A
6:00 AM59 °FPartly sunny.2 mph82%30.09 "HgN/A
Weather by CustomWeather, © 2014

See weather overviewHow to use our weather pages